OBJECT D, 63294

Orbit data source: Space-Track

You're viewing an Uncataloged Satellite

Recently launched and/or uncataloged satellites may have evolving metadata. Metadata may include but not limited to: Owner, Maufacturer, Bus, Motor, and Mission.

OBJECT D, 63294 is a satellite owned by Yunyao yuhang (CN) in SSO that was launched on Mon, 17 Mar 2025 UTC via a GUSHENXING 1 launch vehicle from the Jiuquan Satellite Launch Center, China (JSC). Unknown objects in Earth's orbit typically refer to objects detected orbiting the Earth but have not yet been identified or cataloged. These objects could be anything from previously untracked satellites, spent rocket stages, debris from satellite collisions, or even natural meteoroids temporarily captured by Earth's gravity.

Loading next visibility...
Identifier
63294, 2025-055D
Orbit
SSO
Last TLE update
5 hours ago
Origin
Flag of CNYYAO (CN / PRC)
Manufacturer
Changguang WJ
Mission
Operational Commercial Meteo Radio Occ.
Bus & Motor
YY-1, Unknown motor
Mass
~50 kg wet, ~50 kg dry
Launch date (UTC)
2025-03-17 (4 months ago)
Launch vehicle
GUSHENXING 1
Launch site
Jiuquan Satellite Launch Center, China (JSC)
Object type
Unknown
Shape & HBR
Box + 1 Pan, 5 m
Radar Cross Section
5.339 m², Medium (>0.1 m² and < 1m²)

Expand to show TLE details & history

TLE from 5 hours ago
0 OBJECT D
1 63294U 25055D   25186.56903676  .00005886  00000-0  37491-3 0  9999
2 63294  97.6135 321.2216 0016783 247.4121 112.5332 15.09026141 16609
Epoch: 2025-07-05T13:39Z
TLE epoch observation values (Epoch: 2025-07-05T13:39:24.776Z)
Latitude
-0.00001°
Longitude
-167.43683°
Altitude
546.71 km
Speed
7.586 km/s
True Right ascension
21h 24m 53s
True Declination
0° 00' 00"
Sunlit
Object was in full shadow at epoch
Visualization orbit readout
Latitude
-46.97463°
Longitude
-159.05963°
Altitude
552.648 km
Speed
7.587 km/s
Apparent Right ascension
20h 01m 29s
Apparent Declination
-47° 09' 35"
Sunlit
Object is in full shadow
Visualization observer readout
Local Sidereal Time
06:08:48
Azimuth
241.023° WSW
Elevation
-68.472°
Doppler factor
1
Orbital elements
Apogee altitude
547.768 km
Perigee altitude
524.56 km
Semi-major axis
6,914.301 km
Eccentricity
0.00168
Inclination
97.6135°
RAAN
321.2216°
Arg. of periapsis
247.4121°
True anomaly
Unknown
Mean anomaly
112.5332°
Eccentric anomaly
Unknown
Mean motion
3.77503 °/min
Orbital period
95.36 mins
BSTAR
0.00037491
Loading maneuver chart data...
Loading SW <> Apogee altitude chart data...
Loading historical data...
Loading historical data...
Loading historical data...
Loading historical data...
Loading historical data...
Loading historical data...
Loading historical data...

OBJECT D Visibility forecast

Observer location: undefined°, undefined°

Span
Click to sort rows by Start time (UTC) header in descending order
Start Az.
Max El. time (UTC)
Max El. Az.
Max El.
End time (UTC)
End Az.
7 mins2025-07-05 22:10:18.281Z0.768° NNE2025-07-05 22:13:18.281Z310.882° NW37.275°2025-07-05 22:17:18.281Z209.81° SW
6 mins2025-07-06 08:53:18.281Z156.757° SSE2025-07-06 08:56:18.281Z43.325° NE42.668°2025-07-06 08:59:18.281Z353.667° N
|